Concord, NC

11:15 PM EDT on April 28, 2017 (GMT -0400)
Concord Regional

Weather History for KJQF - May, 2012

Change the Weather History Date:

Wednesday, May 23, 2012

  Actual Average (KCLT) Record (KCLT)
Temperature  
Mean Temperature 70 °F -  
Max Temperature 78 °F 80 °F 98 °F (1941)
Min Temperature 62 °F 60 °F 37 °F (2002)
Cooling Degree Days 5    
Growing Degree Days 20 (Base 50)    
Moisture  
Dew Point 62 °F    
Average Humidity 84    
Maximum Humidity 100    
Minimum Humidity 51    
Precipitation  
Precipitation 0.02 in - - ()
Sea Level Pressure  
Sea Level Pressure 29.92 in    
Wind  
Wind Speed 1 mph (SSE)    
Max Wind Speed 8 mph    
Max Gust Speed -    
Visibility 8 miles    
Events Rain    
Averages and records for this station are not official NWS values.
T = Trace of Precipitation, MM = Missing Value Source: NWS Daily Summary

Daily Weather History Graph

Daily Weather History Graph

Search for Another Location

Airport or City:

Trip Planner

Search our weather history database for the weather conditions in past years. The results will help you decide how hot, cold, wet, or windy it might be!

Date:

Astronomy

May. 23, 2012 Rise Set
Actual Time 6:12 AM EDT 8:26 PM EDT
Civil Twilight 5:43 AM EDT 8:55 PM EDT
Nautical Twilight 5:08 AM EDT 9:31 PM EDT
Astronomical Twilight 4:30 AM EDT 10:09 PM EDT
Moon 8:14 AM EDT (5/23) 10:47 PM EDT (5/23)
Length of Visible Light 15h 11m
Length of Day
14h 14m
Waxing Crescent, 6% of the Moon is Illuminated
May 23
Waxing Crescent
May 28
First Quarter
Jun 4
Full
Jun 11
Last Quarter
Jun 19
New

Hourly Weather History & Observations

Time (EDT) Temp. Dew Point Humidity Pressure Visibility Wind Dir Wind Speed Gust Speed Precip Events Conditions
12:15 AM 64.4 °F 60.8 °F 88% 29.93 in 7.0 mi Calm Calm - N/A Rain Rain
12:35 AM 62.6 °F 60.8 °F 94% 29.91 in 5.0 mi Calm Calm - N/A Rain Rain
12:55 AM 62.6 °F 60.8 °F 94% 29.90 in 7.0 mi SW 4.6 mph - N/A Rain Rain
1:15 AM 62.6 °F 60.8 °F 94% 29.89 in 7.0 mi Calm Calm - N/A Rain Rain
1:35 AM 62.6 °F 60.8 °F 94% 29.88 in 4.0 mi Calm Calm - 0.01 in Rain Light Rain
1:55 AM 62.6 °F 60.8 °F 94% 29.88 in 10.0 mi WNW 4.6 mph - 0.01 in Rain Light Rain
2:15 AM 62.6 °F 62.6 °F 100% 29.87 in 7.0 mi North 8.1 mph - N/A   Mostly Cloudy
2:35 AM 64.4 °F 62.6 °F 94% 29.88 in 7.0 mi Calm Calm - N/A   Overcast
2:55 AM 64.4 °F 62.6 °F 94% 29.88 in 7.0 mi Calm Calm - N/A   Overcast
3:15 AM 62.6 °F 62.6 °F 100% 29.89 in 5.0 mi Calm Calm - N/A Rain Light Rain
3:35 AM 62.6 °F 60.8 °F 94% 29.89 in 4.0 mi Calm Calm - N/A   Mostly Cloudy
3:55 AM 62.6 °F 60.8 °F 94% 29.89 in 4.0 mi Calm Calm - N/A   Overcast
4:15 AM 62.6 °F 62.6 °F 100% 29.89 in 4.0 mi Calm Calm - N/A   Overcast
4:35 AM 62.6 °F 62.6 °F 100% 29.90 in 4.0 mi Calm Calm - N/A   Overcast
4:55 AM 62.6 °F 60.8 °F 94% 29.91 in 5.0 mi Calm Calm - N/A   Overcast
5:15 AM 62.6 °F 60.8 °F 94% 29.90 in 7.0 mi Calm Calm - N/A   Overcast
5:35 AM 62.6 °F 60.8 °F 94% 29.91 in 7.0 mi Calm Calm - 0.01 in   Overcast
5:55 AM 62.6 °F 60.8 °F 94% 29.91 in 10.0 mi Calm Calm - 0.01 in   Overcast
6:15 AM 62.6 °F 60.8 °F 94% 29.90 in 5.0 mi Calm Calm - N/A   Overcast
6:35 AM 62.6 °F 60.8 °F 94% 29.91 in 7.0 mi Calm Calm - N/A   Overcast
6:55 AM 62.6 °F 60.8 °F 94% 29.91 in 10.0 mi Calm Calm - N/A   Overcast
7:15 AM 62.6 °F 60.8 °F 94% 29.92 in 5.0 mi Calm Calm - N/A   Overcast
7:35 AM 62.6 °F 60.8 °F 94% 29.93 in 7.0 mi Calm Calm - N/A   Overcast
7:55 AM 64.4 °F 60.8 °F 88% 29.93 in 7.0 mi Calm Calm - N/A   Overcast
8:55 AM 66.2 °F 62.6 °F 88% 29.94 in 7.0 mi Calm Calm - N/A   Mostly Cloudy
9:55 AM 68.0 °F 62.6 °F 83% 29.95 in 7.0 mi Calm Calm - N/A   Scattered Clouds
10:55 AM 71.6 °F 62.6 °F 73% 29.95 in 7.0 mi South 4.6 mph - N/A   Mostly Cloudy
11:55 AM 71.6 °F 62.6 °F 73% 29.95 in 7.0 mi SSE 4.6 mph - N/A   Scattered Clouds
12:55 PM 75.2 °F 62.6 °F 65% 29.95 in 10.0 mi Calm Calm - N/A   Scattered Clouds
1:55 PM 77.0 °F 60.8 °F 57% 29.94 in 10.0 mi SE 5.8 mph - N/A   Scattered Clouds
2:55 PM 77.0 °F 62.6 °F 61% 29.92 in 10.0 mi South 3.5 mph - N/A   Mostly Cloudy
3:55 PM 78.8 °F 60.8 °F 54% 29.91 in 10.0 mi Calm Calm - N/A   Scattered Clouds
4:55 PM 78.8 °F 59.0 °F 51% 29.90 in 10.0 mi Calm Calm - N/A   Scattered Clouds
5:55 PM 78.8 °F 60.8 °F 54% 29.90 in 10.0 mi Calm Calm - N/A   Scattered Clouds
6:55 PM 77.0 °F 60.8 °F 57% 29.91 in 10.0 mi Calm Calm - N/A   Mostly Cloudy
7:55 PM 73.4 °F 64.4 °F 73% 29.92 in 10.0 mi North 8.1 mph - N/A   Mostly Cloudy
8:55 PM 69.8 °F 64.4 °F 83% 29.94 in 10.0 mi Calm Calm - N/A   Mostly Cloudy
9:15 PM 68.0 °F 62.6 °F 83% 29.94 in 10.0 mi Calm Calm - N/A   Clear
9:35 PM 68.0 °F 64.4 °F 88% 29.94 in 10.0 mi Calm Calm - N/A   Clear
9:55 PM 68.0 °F 62.6 °F 83% 29.95 in 10.0 mi Calm Calm - N/A   Clear
10:15 PM 69.8 °F 62.6 °F 78% 29.96 in 10.0 mi Calm Calm - N/A   Scattered Clouds
10:35 PM 69.8 °F 62.6 °F 78% 29.97 in 10.0 mi Calm Calm - N/A   Scattered Clouds
10:55 PM 68.0 °F 62.6 °F 83% 29.97 in 10.0 mi Calm Calm - N/A   Mostly Cloudy
11:15 PM 68.0 °F 62.6 °F 83% 29.98 in 10.0 mi ESE 3.5 mph - N/A   Scattered Clouds
11:35 PM 69.8 °F 62.6 °F 78% 29.98 in 10.0 mi Calm Calm - N/A   Mostly Cloudy
11:55 PM 68.0 °F 62.6 °F 83% 29.98 in 10.0 mi Calm Calm - N/A   Mostly Cloudy